• In Latvia
  • List of Countries
  • For 7 days
  • Water Temperature
  • Satellite Maps
  • Weather Map
  • Weather Widgets
  • user-avatar
    Login

    Hourly Weather Sydney

    Today, 19 June, Tuesday

    Time Temperature Precipitation Wind Pressure Humidity
    00:00 +7°C° 0.1 mm 8 mps 764 mmHg 70%
    01:00 +7°C° 0.1 mm 8 mps 764 mmHg 70%
    02:00 +9°C° 0.5 mm 8 mps 764 mmHg 70%
    03:00 +8°C° 0.5 mm 9 mps 764 mmHg 71%
    04:00 +9°C° 0 mm 8 mps 763 mmHg 71%
    05:00 +8°C° 0.7 mm 9 mps 763 mmHg 72%
    06:00 +10°C° 0.7 mm 9 mps 764 mmHg 73%
    07:00 +10°C° 0.7 mm 9 mps 764 mmHg 74%
    08:00 +11°C° 0.7 mm 9 mps 764 mmHg 72%
    09:00 +12°C° 0.7 mm 9 mps 765 mmHg 71%
    10:00 +13°C° 0.7 mm 9 mps 765 mmHg 69%
    11:00 +13°C° 0.8 mm 9 mps 765 mmHg 69%
    12:00 +13°C° 0.8 mm 9 mps 765 mmHg 69%
    13:00 +15°C° 0.8 mm 9 mps 765 mmHg 69%
    14:00 +13°C° 1.1 mm 8 mps 765 mmHg 70%
    15:00 +13°C° 1.1 mm 8 mps 765 mmHg 72%
    16:00 +13°C° 1.1 mm 8 mps 765 mmHg 74%
    17:00 +12°C° 0.5 mm 8 mps 766 mmHg 77%
    18:00 +11°C° 0.5 mm 7 mps 766 mmHg 81%
    19:00 +11°C° 0.5 mm 7 mps 767 mmHg 84%
    20:00 +10°C° 0.3 mm 7 mps 767 mmHg 85%
    21:00 +10°C° 0.3 mm 7 mps 767 mmHg 86%
    22:00 +10°C° 0.3 mm 6 mps 768 mmHg 88%
    23:00 +10°C° 0.3 mm 6 mps 768 mmHg 88%

    Tomorrow, 20 June, Wednesday

    Time Temperature Precipitation Wind Pressure Humidity
    00:00 +10°C° 0.3 mm 6 mps 768 mmHg 88%
    01:00 +10°C° 0.3 mm 6 mps 768 mmHg 88%
    02:00 +10°C° 0.1 mm 6 mps 768 mmHg 89%
    03:00 +10°C° 0.1 mm 6 mps 768 mmHg 90%
    04:00 +10°C° 0.1 mm 5 mps 768 mmHg 91%
    05:00 +9°C° 0.1 mm 5 mps 768 mmHg 91%
    06:00 +9°C° 0.1 mm 5 mps 769 mmHg 91%
    07:00 +9°C° 0.1 mm 5 mps 769 mmHg 92%
    08:00 +10°C° 0 mm 5 mps 769 mmHg 84%
    09:00 +13°C° 0 mm 5 mps 769 mmHg 76%
    10:00 +15°C° 0 mm 5 mps 769 mmHg 69%
    11:00 +15°C° 0 mm 4 mps 769 mmHg 65%
    12:00 +15°C° 0 mm 4 mps 768 mmHg 61%
    13:00 +15°C° 0 mm 4 mps 768 mmHg 58%
    14:00 +15°C° 0 mm 4 mps 768 mmHg 59%
    15:00 +15°C° 0 mm 4 mps 768 mmHg 61%
    16:00 +14°C° 0 mm 4 mps 768 mmHg 63%
    17:00 +13°C° 0 mm 4 mps 768 mmHg 67%
    18:00 +12°C° 0 mm 4 mps 769 mmHg 72%
    19:00 +11°C° 0 mm 4 mps 769 mmHg 77%
    20:00 +11°C° 0.1 mm 4 mps 769 mmHg 78%
    21:00 +10°C° 0.1 mm 4 mps 769 mmHg 79%
    22:00 +10°C° 0.1 mm 4 mps 770 mmHg 80%
    23:00 +10°C° 0 mm 3 mps 769 mmHg 80%

    Day after tomorrow, 21 June, Thursday

    Time Temperature Precipitation Wind Pressure Humidity
    00:00 +9°C° 0 mm 3 mps 769 mmHg 81%
    01:00 +9°C° 0 mm 3 mps 769 mmHg 82%
    02:00 +9°C° 0 mm 3 mps 769 mmHg 82%
    03:00 +9°C° 0 mm 3 mps 768 mmHg 82%
    04:00 +8°C° 0 mm 3 mps 768 mmHg 82%
    05:00 +8°C° 0 mm 3 mps 769 mmHg 82%
    06:00 +8°C° 0 mm 3 mps 769 mmHg 82%
    07:00 +8°C° 0 mm 3 mps 769 mmHg 82%
    08:00 +10°C° 0 mm 3 mps 769 mmHg 73%
    09:00 +12°C° 0 mm 3 mps 769 mmHg 64%
    10:00 +14°C° 0 mm 3 mps 770 mmHg 55%
    11:00 +17°C° 0 mm 2 mps 769 mmHg 50%
    12:00 +18°C° 0 mm 2 mps 769 mmHg 45%
    13:00 +20°C° 0 mm 2 mps 768 mmHg 40%
    14:00 +19°C° 0 mm 2 mps 768 mmHg 42%
    15:00 +18°C° 0 mm 2 mps 768 mmHg 45%
    16:00 +17°C° 0 mm 2 mps 768 mmHg 47%
    17:00 +16°C° 0 mm 1 mps 768 mmHg 55%
    18:00 +14°C° 0 mm 1 mps 769 mmHg 63%
    19:00 +12°C° 0 mm 1 mps 769 mmHg 71%
    20:00 +12°C° 0 mm 1 mps 769 mmHg 73%
    21:00 +11°C° 0 mm 1 mps 770 mmHg 76%
    22:00 +11°C° 0 mm 1 mps 770 mmHg 78%
    23:00 +10°C° 0 mm 1 mps 770 mmHg 78%

    22 June, Friday

    Time Temperature Precipitation Wind Pressure Humidity
    00:00 +9°C° 0 mm 2 mps 770 mmHg 78%
    01:00 +8°C° 0 mm 2 mps 770 mmHg 78%
    02:00 +8°C° 0 mm 2 mps 769 mmHg 78%
    03:00 +8°C° 0 mm 2 mps 769 mmHg 78%
    04:00 +8°C° 0 mm 2 mps 769 mmHg 77%
    05:00 +8°C° 0 mm 2 mps 770 mmHg 78%
    06:00 +7°C° 0 mm 2 mps 770 mmHg 79%
    07:00 +7°C° 0 mm 2 mps 770 mmHg 79%
    08:00 +10°C° 0 mm 2 mps 770 mmHg 70%
    09:00 +13°C° 0 mm 2 mps 770 mmHg 62%
    10:00 +15°C° 0 mm 2 mps 771 mmHg 53%
    11:00 +17°C° 0 mm 2 mps 770 mmHg 50%
    12:00 +19°C° 0 mm 1 mps 769 mmHg 47%
    13:00 +20°C° 0 mm 1 mps 769 mmHg 44%
    14:00 +20°C° 0 mm 1 mps 769 mmHg 47%
    15:00 +18°C° 0 mm 2 mps 769 mmHg 50%
    16:00 +17°C° 0 mm 2 mps 768 mmHg 53%
    17:00 +16°C° 0 mm 2 mps 769 mmHg 62%
    18:00 +14°C° 0 mm 2 mps 769 mmHg 70%
    19:00 +12°C° 0 mm 2 mps 770 mmHg 79%
    20:00 +12°C° 0 mm 2 mps 770 mmHg 82%
    21:00 +11°C° 0 mm 1 mps 770 mmHg 85%
    22:00 +11°C° 0 mm 1 mps 770 mmHg 87%
    23:00 +9°C° 0 mm 2 mps 770 mmHg 88%

    23 June, Saturday

    Time Temperature Precipitation Wind Pressure Humidity
    00:00 +9°C° 0 mm 2 mps 770 mmHg 89%
    01:00 +9°C° 0 mm 2 mps 770 mmHg 89%
    02:00 +8°C° 0 mm 2 mps 769 mmHg 89%
    03:00 +8°C° 0 mm 2 mps 769 mmHg 88%
    04:00 +8°C° 0 mm 2 mps 769 mmHg 87%
    05:00 +7°C° 0 mm 2 mps 769 mmHg 86%
    06:00 +7°C° 0 mm 2 mps 769 mmHg 84%
    07:00 +7°C° 0 mm 2 mps 770 mmHg 83%
    08:00 +9°C° 0 mm 2 mps 770 mmHg 72%
    09:00 +13°C° 0 mm 2 mps 769 mmHg 61%
    10:00 +15°C° 0 mm 2 mps 769 mmHg 49%
    11:00 +18°C° 0 mm 1 mps 769 mmHg 44%
    12:00 +19°C° 0 mm 1 mps 768 mmHg 39%
    13:00 +21°C° 0 mm 1 mps 767 mmHg 34%
    14:00 +20°C° 0 mm 1 mps 767 mmHg 36%
    15:00 +20°C° 0 mm 1 mps 767 mmHg 39%
    16:00 +18°C° 0 mm 2 mps 766 mmHg 42%
    17:00 +16°C° 0 mm 2 mps 767 mmHg 49%
    18:00 +14°C° 0 mm 2 mps 767 mmHg 56%
    19:00 +12°C° 0 mm 2 mps 768 mmHg 64%
    20:00 +12°C° 0 mm 2 mps 768 mmHg 64%
    21:00 +10°C° 0 mm 3 mps 768 mmHg 63%
    22:00 +10°C° 0 mm 3 mps 768 mmHg 63%
    23:00 +8°C° 0 mm 4 mps 768 mmHg 66%

    24 June, Sunday

    Time Temperature Precipitation Wind Pressure Humidity
    00:00 +8°C° 0 mm 4 mps 768 mmHg 69%
    01:00 +7°C° 0 mm 4 mps 767 mmHg 71%
    02:00 +7°C° 0 mm 4 mps 767 mmHg 73%
    03:00 +7°C° 0 mm 4 mps 767 mmHg 76%
    04:00 +7°C° 0 mm 4 mps 767 mmHg 78%
    05:00 +7°C° 0 mm 4 mps 767 mmHg 77%
    06:00 +7°C° 0 mm 4 mps 768 mmHg 77%
    07:00 +7°C° 0 mm 4 mps 768 mmHg 77%
    08:00 +10°C° 0 mm 4 mps 768 mmHg 68%
    09:00 +12°C° 0 mm 4 mps 768 mmHg 60%
    10:00 +14°C° 0 mm 4 mps 768 mmHg 51%
    11:00 +15°C° 0 mm 4 mps 768 mmHg 47%
    12:00 +18°C° 0 mm 4 mps 767 mmHg 44%
    13:00 +19°C° 0 mm 4 mps 767 mmHg 40%
    14:00 +19°C° 0 mm 4 mps 767 mmHg 44%
    15:00 +18°C° 0 mm 4 mps 767 mmHg 47%
    16:00 +17°C° 0 mm 4 mps 767 mmHg 50%
    17:00 +15°C° 0 mm 4 mps 768 mmHg 57%
    18:00 +14°C° 0 mm 4 mps 768 mmHg 64%
    19:00 +13°C° 0 mm 4 mps 769 mmHg 70%
    20:00 +12°C° 0.2 mm 4 mps 769 mmHg 74%
    21:00 +11°C° 0.2 mm 4 mps 770 mmHg 78%
    22:00 +11°C° 0.2 mm 4 mps 770 mmHg 81%
    23:00 +9°C° 0.1 mm 5 mps 770 mmHg 82%
    Show more